Location: DARK SKY Beskydy - Park tmavé oblohy, www.darkskybeskydy.cz
(49.4926°N, 18.5016°E)
Time: 21:35:17
(UTC+02:00)

ACS3 Solar Sail - Pass Details

Date: 26 June 2024
Orbit: 992 x 1023 km, 97.4° (Epoch: 12 July)

Event Time Altitude Azimuth Distance (km) Brightness Sun altitude
Exits shadow 22:04:09 - 166° (SSE) 2,998 6.8 -8.5°
Reaches altitude 10° 22:04:47 10° 166° (SSE) 2,756 6.6 -8.6°
Maximum altitude 22:11:01 87° 257° (WSW) 1,002 4.9 -9.2°
Drops below altitude 10° 22:17:16 10° 347° (NNW) 2,767 8.4 -9.8°
Sets 22:19:45 0° 348° (NNW) 3,720 9.3 -10.0°
